Вернуться в каталог

STARLINK-37071

АктивенСвязьVLEO
NORAD 68190·PAYLOAD·🇺🇸 United States

Запущен Mar 14, 2026 с Vandenberg Space Force Base

Loading…

Ближайшие Пролёты (ближайшие 24 часа)

TLE

СвежийSource: CelesTrak SupGP

Эпоха: Sep 15, 2026, 03:51 UTC

1 68190C 26050Z   26258.16090278 -.00014047  00000+0 -41494-3 0  2583
2 68190  53.1577 102.9972 0001291  81.1696 284.8157 15.34403321    10

Отслеживайте STARLINK-37071 в реальном времени с AllMySat

Download on the App Store